^^
Station Historical Data
Daily Summary for April 8, 2019 Units:  English    Metric   Both
« Previous Day
Next Day »
Daily Weekly Monthly Yearly Custom
  High: Low: Average:
Temperature: 63.3 °F 43.0 °F 52.8 °F
Dew Point: 41.9 °F 22.8 °F 32 °F
Humidity: 72% 22% 48%
Wind Speed: 30.0mph 0.0mph 10.9mph
Wind Gust: 42.0mph - -
Wind- - WNW
Pressure: 29.89 in 29.61 in -
Precipitation: 0.00 in    
Historical Graphs
 
 
Tabular Data for April 8, 2019
Time Temperature Dew Point Pressure Wind Wind Speed Wind Gust Humidity Rainfall Rate (Hourly) solar Conditions
00:00 51.2 °F 31.6 °F 29.64 in SSE 6.0 mph 10.0 mph 47% 0.00 in 0.00 W/m2
00:05 51.1 °F 31.6 °F 29.64 in SSE 5.0 mph 10.0 mph 47% 0.00 in 0.00 W/m2
00:10 51.4 °F 31.3 °F 29.64 in SSE 9.0 mph 9.0 mph 46% 0.00 in 0.00 W/m2
00:15 51.7 °F 31.0 °F 29.63 in SE 6.0 mph 9.0 mph 45% 0.00 in 0.00 W/m2
00:20 51.6 °F 31.5 °F 29.63 in SE 6.0 mph 9.0 mph 46% 0.00 in 0.00 W/m2
00:25 51.2 °F 31.1 °F 29.63 in SE 5.0 mph 8.0 mph 46% 0.00 in 0.00 W/m2
00:30 50.9 °F 31.4 °F 29.63 in SE 4.0 mph 7.0 mph 47% 0.00 in 0.00 W/m2
00:35 50.8 °F 31.3 °F 29.63 in SE 4.0 mph 6.0 mph 47% 0.00 in 0.00 W/m2
00:40 50.8 °F 31.3 °F 29.63 in SE 5.0 mph 6.0 mph 47% 0.00 in 0.00 W/m2
00:44 50.6 °F 31.6 °F 29.63 in SE 6.0 mph 7.0 mph 48% 0.00 in 0.00 W/m2
00:50 50.3 °F 31.8 °F 29.63 in ESE 5.0 mph 8.0 mph 49% 0.00 in 0.00 W/m2
00:54 50.0 °F 31.6 °F 29.63 in ESE 2.0 mph 8.0 mph 49% 0.00 in 0.00 W/m2
00:59 49.9 °F 31.5 °F 29.62 in East 5.0 mph 8.0 mph 49% 0.00 in 0.00 W/m2
01:04 49.6 °F 31.2 °F 29.62 in East 2.0 mph 6.0 mph 49% 0.00 in 0.00 W/m2
01:09 49.2 °F 31.3 °F 29.62 in East 2.0 mph 5.0 mph 50% 0.00 in 0.00 W/m2
01:14 48.9 °F 31.1 °F 29.63 in East 1.0 mph 5.0 mph 50% 0.00 in 0.00 W/m2
01:19 48.3 °F 31.0 °F 29.63 in East 2.0 mph 5.0 mph 51% 0.00 in 0.00 W/m2
01:24 47.5 °F 30.7 °F 29.62 in ESE 5.0 mph 7.0 mph 52% 0.00 in 0.00 W/m2
01:29 47.5 °F 31.2 °F 29.62 in ESE 3.0 mph 7.0 mph 53% 0.00 in 0.00 W/m2
01:34 47.8 °F 31.0 °F 29.62 in ESE 4.0 mph 7.0 mph 52% 0.00 in 0.00 W/m2
01:39 48.0 °F 31.2 °F 29.62 in East 7.0 mph 7.0 mph 52% 0.00 in 0.00 W/m2
01:44 48.0 °F 31.2 °F 29.62 in East 1.0 mph 7.0 mph 52% 0.00 in 0.00 W/m2
01:49 48.6 °F 31.8 °F 29.62 in SE 4.0 mph 7.0 mph 52% 0.00 in 0.00 W/m2
01:54 49.0 °F 32.6 °F 29.62 in Calm   6.0 mph 53% 0.00 in 0.00 W/m2
01:59 49.2 °F 32.3 °F 29.62 in SSE 3.0 mph 6.0 mph 52% 0.00 in 0.00 W/m2
02:05 49.0 °F 32.6 °F 29.62 in South 2.0 mph 6.0 mph 53% 0.00 in 0.00 W/m2
02:10 49.1 °F 32.7 °F 29.62 in South 6.0 mph 6.0 mph 53% 0.00 in 0.00 W/m2
02:15 49.2 °F 33.3 °F 29.61 in SSW 3.0 mph 7.0 mph 54% 0.00 in 0.00 W/m2
02:20 49.2 °F 33.7 °F 29.62 in SW 4.0 mph 7.0 mph 55% 0.00 in 0.00 W/m2
02:25 48.9 °F 33.4 °F 29.62 in WSW 3.0 mph 6.0 mph 55% 0.00 in 0.00 W/m2
02:30 48.6 °F 33.6 °F 29.62 in WSW 5.0 mph 9.0 mph 56% 0.00 in 0.00 W/m2
02:35 48.4 °F 33.9 °F 29.62 in SW 5.0 mph 9.0 mph 57% 0.00 in 0.00 W/m2
02:40 48.3 °F 33.8 °F 29.61 in SW 4.0 mph 7.0 mph 57% 0.00 in 0.00 W/m2
02:44 48.3 °F 33.8 °F 29.62 in SW 5.0 mph 7.0 mph 57% 0.00 in 0.00 W/m2
02:49 48.1 °F 34.0 °F 29.62 in WSW 4.0 mph 7.0 mph 58% 0.00 in 0.00 W/m2
02:54 47.8 °F 33.7 °F 29.62 in WSW 5.0 mph 7.0 mph 58% 0.00 in 0.00 W/m2
02:59 47.5 °F 33.9 °F 29.62 in WSW 6.0 mph 8.0 mph 59% 0.00 in 0.00 W/m2
03:04 47.4 °F 34.6 °F 29.62 in WSW 7.0 mph 8.0 mph 61% 0.00 in 0.00 W/m2
03:09 47.4 °F 34.6 °F 29.62 in SW 5.0 mph 7.0 mph 61% 0.00 in 0.00 W/m2
03:14 47.4 °F 35.0 °F 29.62 in SW 5.0 mph 8.0 mph 62% 0.00 in 0.00 W/m2
03:19 47.4 °F 35.0 °F 29.62 in WSW 4.0 mph 8.0 mph 62% 0.00 in 0.00 W/m2
03:24 47.2 °F 35.6 °F 29.62 in WSW 5.0 mph 8.0 mph 64% 0.00 in 0.00 W/m2
03:29 47.3 °F 36.1 °F 29.62 in West 6.0 mph 9.0 mph 65% 0.00 in 0.00 W/m2
03:34 47.7 °F 36.1 °F 29.62 in West 6.0 mph 9.0 mph 64% 0.00 in 0.00 W/m2
03:39 47.9 °F 36.3 °F 29.62 in WSW 6.0 mph 8.0 mph 64% 0.00 in 0.00 W/m2
03:44 47.8 °F 35.8 °F 29.61 in WSW 4.0 mph 8.0 mph 63% 0.00 in 0.00 W/m2
03:49 47.6 °F 35.6 °F 29.61 in WNW 3.0 mph 7.0 mph 63% 0.00 in 0.00 W/m2
03:54 47.4 °F 35.8 °F 29.61 in West 4.0 mph 5.0 mph 64% 0.00 in 0.00 W/m2
03:59 47.2 °F 35.6 °F 29.62 in West 5.0 mph 7.0 mph 64% 0.00 in 0.00 W/m2
04:05 47.0 °F 35.8 °F 29.63 in West 4.0 mph 7.0 mph 65% 0.00 in 0.00 W/m2
04:10 46.7 °F 35.6 °F 29.63 in West 4.0 mph 7.0 mph 65% 0.00 in 0.00 W/m2
04:15 46.7 °F 35.9 °F 29.63 in West 4.0 mph 6.0 mph 66% 0.00 in 0.00 W/m2
04:20 46.7 °F 35.9 °F 29.63 in West 2.0 mph 6.0 mph 66% 0.00 in 0.00 W/m2
04:25 46.7 °F 36.3 °F 29.64 in West 4.0 mph 6.0 mph 67% 0.00 in 0.00 W/m2
04:30 46.7 °F 36.7 °F 29.64 in West 5.0 mph 6.0 mph 68% 0.00 in 0.00 W/m2
04:35 46.6 °F 36.6 °F 29.63 in West 4.0 mph 6.0 mph 68% 0.00 in 0.00 W/m2
04:39 46.5 °F 36.5 °F 29.63 in West 3.0 mph 5.0 mph 68% 0.00 in 0.00 W/m2
04:45 46.3 °F 36.3 °F 29.63 in West 3.0 mph 6.0 mph 68% 0.00 in 0.00 W/m2
04:49 46.2 °F 36.6 °F 29.63 in West 3.0 mph 6.0 mph 69% 0.00 in 0.00 W/m2
04:54 46.3 °F 36.7 °F 29.63 in WNW 3.0 mph 6.0 mph 69% 0.00 in 0.00 W/m2
04:59 46.3 °F 36.7 °F 29.64 in West 5.0 mph 6.0 mph 69% 0.00 in 0.00 W/m2
05:04 46.1 °F 36.5 °F 29.64 in WSW 3.0 mph 7.0 mph 69% 0.00 in 0.00 W/m2
05:09 45.8 °F 36.6 °F 29.64 in West 2.0 mph 7.0 mph 70% 0.00 in 0.00 W/m2
05:14 45.6 °F 36.4 °F 29.64 in WNW 4.0 mph 5.0 mph 70% 0.00 in 0.00 W/m2
05:19 45.7 °F 36.8 °F 29.65 in WNW 4.0 mph 9.0 mph 71% 0.00 in 0.00 W/m2
05:24 46.0 °F 37.1 °F 29.65 in NW 6.0 mph 9.0 mph 71% 0.00 in 0.00 W/m2
05:29 46.2 °F 37.3 °F 29.65 in WNW 3.0 mph 8.0 mph 71% 0.00 in 0.00 W/m2
05:34 46.6 °F 37.3 °F 29.65 in WNW 4.0 mph 7.0 mph 70% 0.00 in 0.00 W/m2
05:39 46.7 °F 37.1 °F 29.66 in NW 10.0 mph 10.0 mph 69% 0.00 in 0.00 W/m2
05:44 46.5 °F 36.9 °F 29.66 in WNW 7.0 mph 10.0 mph 69% 0.00 in 0.00 W/m2
05:49 46.4 °F 36.8 °F 29.66 in WNW 7.0 mph 12.0 mph 69% 0.00 in 0.00 W/m2
05:54 47.0 °F 37.0 °F 29.65 in WNW 10.0 mph 12.0 mph 68% 0.00 in 0.00 W/m2
05:59 47.4 °F 37.0 °F 29.65 in West 10.0 mph 14.0 mph 67% 0.00 in 0.00 W/m2
06:04 47.4 °F 37.0 °F 29.66 in West 12.0 mph 14.0 mph 67% 0.00 in 0.00 W/m2
06:10 47.6 °F 37.2 °F 29.66 in West 9.0 mph 16.0 mph 67% 0.00 in 0.00 W/m2
06:15 47.7 °F 37.3 °F 29.67 in West 13.0 mph 16.0 mph 67% 0.00 in 0.00 W/m2
06:20 47.4 °F 37.4 °F 29.68 in NW 10.0 mph 16.0 mph 68% 0.00 in 0.00 W/m2
06:25 47.3 °F 37.3 °F 29.67 in West 11.0 mph 16.0 mph 68% 0.00 in 0.00 W/m2
06:30 47.2 °F 37.2 °F 29.67 in WNW 9.0 mph 15.0 mph 68% 0.00 in 0.00 W/m2
06:35 47.1 °F 37.1 °F 29.67 in WNW 6.0 mph 15.0 mph 68% 0.00 in 0.00 W/m2
06:40 47.2 °F 36.8 °F 29.67 in NW 9.0 mph 15.0 mph 67% 0.00 in 0.00 W/m2
06:45 46.7 °F 36.3 °F 29.67 in WNW 10.0 mph 14.0 mph 67% 0.00 in 0.00 W/m2
06:50 46.4 °F 36.0 °F 29.67 in WNW 9.0 mph 12.0 mph 67% 0.00 in 0.00 W/m2
06:54 46.0 °F 35.7 °F 29.67 in WNW 8.0 mph 12.0 mph 67% 0.00 in 0.00 W/m2
06:59 45.6 °F 35.6 °F 29.68 in NW 6.0 mph 12.0 mph 68% 0.00 in 0.00 W/m2
07:04 45.2 °F 35.3 °F 29.68 in NW 5.0 mph 10.0 mph 68% 0.00 in 0.00 W/m2
07:09 44.7 °F 35.1 °F 29.68 in WNW 5.0 mph 9.0 mph 69% 0.00 in 0.00 W/m2
07:14 44.0 °F 34.8 °F 29.68 in WNW 7.0 mph 10.0 mph 70% 0.00 in 5.00 W/m2
07:19 43.6 °F 34.5 °F 29.69 in WNW 5.0 mph 10.0 mph 70% 0.00 in 7.00 W/m2
07:24 43.3 °F 34.5 °F 29.69 in WNW 7.0 mph 9.0 mph 71% 0.00 in 11.00 W/m2
07:29 43.1 °F 34.3 °F 29.69 in WNW 6.0 mph 9.0 mph 71% 0.00 in 11.00 W/m2
07:34 43.0 °F 34.2 °F 29.69 in WNW 7.0 mph 10.0 mph 71% 0.00 in 12.00 W/m2
07:39 43.1 °F 34.3 °F 29.69 in WNW 7.0 mph 10.0 mph 71% 0.00 in 14.00 W/m2
07:44 43.1 °F 34.3 °F 29.70 in WNW 7.0 mph 10.0 mph 71% 0.00 in 18.00 W/m2
07:49 43.5 °F 34.7 °F 29.70 in West 8.0 mph 11.0 mph 71% 0.00 in 19.00 W/m2
07:54 43.7 °F 35.3 °F 29.70 in West 8.0 mph 11.0 mph 72% 0.00 in 21.00 W/m2
07:59 44.0 °F 35.6 °F 29.70 in West 9.0 mph 13.0 mph 72% 0.00 in 23.00 W/m2
08:04 44.3 °F 35.8 °F 29.70 in WNW 7.0 mph 13.0 mph 72% 0.00 in 23.00 W/m2
08:09 44.8 °F 36.0 °F 29.70 in WNW 13.0 mph 16.0 mph 71% 0.00 in 25.00 W/m2
08:14 45.6 °F 36.7 °F 29.70 in WNW 15.0 mph 16.0 mph 71% 0.00 in 25.00 W/m2
08:20 46.4 °F 37.5 °F 29.70 in WNW 12.0 mph 16.0 mph 71% 0.00 in 28.00 W/m2
08:25 46.7 °F 37.4 °F 29.70 in WNW 11.0 mph 16.0 mph 70% 0.00 in 155.00 W/m2
08:30 46.8 °F 37.5 °F 29.70 in WNW 6.0 mph 16.0 mph 70% 0.00 in 172.00 W/m2
08:35 46.9 °F 37.6 °F 29.71 in WNW 10.0 mph 16.0 mph 70% 0.00 in 192.00 W/m2
08:39 47.0 °F 37.7 °F 29.71 in West 11.0 mph 15.0 mph 70% 0.00 in 207.00 W/m2
08:44 47.5 °F 38.6 °F 29.71 in West 9.0 mph 15.0 mph 71% 0.00 in 199.00 W/m2
08:49 48.1 °F 39.1 °F 29.71 in West 11.0 mph 16.0 mph 71% 0.00 in 202.00 W/m2
08:55 49.0 °F 39.6 °F 29.72 in WNW 12.0 mph 17.0 mph 70% 0.00 in 239.00 W/m2
08:59 49.4 °F 39.7 °F 29.71 in West 10.0 mph 19.0 mph 69% 0.00 in 276.00 W/m2
09:04 49.6 °F 39.8 °F 29.71 in West 14.0 mph 19.0 mph 69% 0.00 in 292.00 W/m2
09:09 49.8 °F 40.0 °F 29.72 in West 14.0 mph 19.0 mph 69% 0.00 in 306.00 W/m2
09:14 50.1 °F 40.3 °F 29.72 in WNW 12.0 mph 18.0 mph 69% 0.00 in 322.00 W/m2
09:19 50.3 °F 40.1 °F 29.72 in WNW 13.0 mph 16.0 mph 68% 0.00 in 338.00 W/m2
09:24 50.5 °F 40.3 °F 29.72 in West 6.0 mph 14.0 mph 68% 0.00 in 353.00 W/m2
09:29 51.3 °F 41.5 °F 29.72 in WNW 11.0 mph 16.0 mph 69% 0.00 in 371.00 W/m2
09:34 52.3 °F 41.7 °F 29.72 in West 13.0 mph 24.0 mph 67% 0.00 in 373.00 W/m2
09:39 53.0 °F 41.9 °F 29.72 in WNW 14.0 mph 24.0 mph 66% 0.00 in 406.00 W/m2
09:44 53.2 °F 41.3 °F 29.72 in WNW 14.0 mph 28.0 mph 64% 0.00 in 424.00 W/m2
09:49 52.8 °F 40.1 °F 29.72 in NW 24.0 mph 32.0 mph 62% 0.00 in 446.00 W/m2
09:54 53.3 °F 41.0 °F 29.72 in WNW 15.0 mph 32.0 mph 63% 0.00 in 475.00 W/m2
09:59 53.5 °F 40.8 °F 29.72 in NW 22.0 mph 29.0 mph 62% 0.00 in 450.00 W/m2
10:04 53.7 °F 40.6 °F 29.72 in NW 20.0 mph 29.0 mph 61% 0.00 in 443.00 W/m2
10:09 53.7 °F 40.6 °F 29.72 in WNW 18.0 mph 28.0 mph 61% 0.00 in 443.00 W/m2
10:14 53.8 °F 40.7 °F 29.72 in West 16.0 mph 28.0 mph 61% 0.00 in 496.00 W/m2
10:19 54.4 °F 39.9 °F 29.72 in NW 15.0 mph 27.0 mph 58% 0.00 in 517.00 W/m2
10:24 54.4 °F 39.9 °F 29.73 in NW 16.0 mph 27.0 mph 58% 0.00 in 468.00 W/m2
10:29 54.6 °F 39.2 °F 29.73 in NW 17.0 mph 27.0 mph 56% 0.00 in 454.00 W/m2
10:34 54.8 °F 38.9 °F 29.73 in NW 21.0 mph 27.0 mph 55% 0.00 in 450.00 W/m2
10:39 54.8 °F 38.0 °F 29.73 in NW 18.0 mph 27.0 mph 53% 0.00 in 527.00 W/m2
10:44 55.3 °F 38.4 °F 29.73 in NW 24.0 mph 27.0 mph 53% 0.00 in 550.00 W/m2
10:49 55.2 °F 37.9 °F 29.74 in WNW 21.0 mph 26.0 mph 52% 0.00 in 455.00 W/m2
10:54 55.4 °F 38.5 °F 29.74 in WNW 19.0 mph 26.0 mph 53% 0.00 in 455.00 W/m2
10:59 55.6 °F 37.7 °F 29.74 in NW 17.0 mph 25.0 mph 51% 0.00 in 469.00 W/m2
11:04 56.1 °F 38.7 °F 29.74 in NW 18.0 mph 25.0 mph 52% 0.00 in 490.00 W/m2
11:09 56.5 °F 37.0 °F 29.74 in NW 14.0 mph 27.0 mph 48% 0.00 in 492.00 W/m2
11:14 57.2 °F 36.6 °F 29.74 in WNW 25.0 mph 27.0 mph 46% 0.00 in 487.00 W/m2
11:19 57.1 °F 36.5 °F 29.75 in NW 16.0 mph 27.0 mph 46% 0.00 in 504.00 W/m2
11:24 57.7 °F 36.5 °F 29.75 in WNW 22.0 mph 27.0 mph 45% 0.00 in 450.00 W/m2
11:29 57.7 °F 34.7 °F 29.75 in WNW 27.0 mph 28.0 mph 42% 0.00 in 471.00 W/m2
11:34 57.6 °F 34.7 °F 29.75 in WNW 14.0 mph 30.0 mph 42% 0.00 in 461.00 W/m2
11:39 58.2 °F 35.8 °F 29.75 in WNW 18.0 mph 30.0 mph 43% 0.00 in 466.00 W/m2
11:44 57.9 °F 34.3 °F 29.75 in WNW 11.0 mph 26.0 mph 41% 0.00 in 664.00 W/m2
11:49 58.4 °F 33.5 °F 29.75 in NW 15.0 mph 30.0 mph 39% 0.00 in 671.00 W/m2
11:54 58.1 °F 33.2 °F 29.75 in North 17.0 mph 30.0 mph 39% 0.00 in 677.00 W/m2
11:59 58.5 °F 34.2 °F 29.75 in NW 23.0 mph 30.0 mph 40% 0.00 in 670.00 W/m2
12:04 58.5 °F 33.0 °F 29.76 in WNW 26.0 mph 28.0 mph 38% 0.00 in 679.00 W/m2
12:09 59.3 °F 33.7 °F 29.75 in WNW 23.0 mph 28.0 mph 38% 0.00 in 770.00 W/m2
12:14 59.5 °F 32.5 °F 29.75 in WNW 22.0 mph 29.0 mph 36% 0.00 in 691.00 W/m2
12:19 59.5 °F 31.1 °F 29.75 in NW 23.0 mph 30.0 mph 34% 0.00 in 691.00 W/m2
12:24 60.1 °F 30.9 °F 29.76 in NW 15.0 mph 30.0 mph 33% 0.00 in 670.00 W/m2
12:29 60.5 °F 31.2 °F 29.76 in WNW 12.0 mph 28.0 mph 33% 0.00 in 664.00 W/m2
12:34 60.3 °F 31.0 °F 29.75 in NW 16.0 mph 30.0 mph 33% 0.00 in 749.00 W/m2
12:39 60.7 °F 30.6 °F 29.76 in WNW 30.0 mph 32.0 mph 32% 0.00 in 773.00 W/m2
12:44 60.5 °F 31.2 °F 29.76 in WNW 26.0 mph 34.0 mph 33% 0.00 in 724.00 W/m2
12:49 61.1 °F 31.0 °F 29.76 in NNW 18.0 mph 34.0 mph 32% 0.00 in 700.00 W/m2
12:54 61.3 °F 28.7 °F 29.76 in WNW 14.0 mph 30.0 mph 29% 0.00 in 788.00 W/m2
12:59 61.4 °F 30.5 °F 29.76 in WNW 19.0 mph 30.0 mph 31% 0.00 in 844.00 W/m2
13:04 62.4 °F 30.5 °F 29.76 in NNW 18.0 mph 31.0 mph 30% 0.00 in 849.00 W/m2
13:09 61.9 °F 28.4 °F 29.76 in WNW 17.0 mph 31.0 mph 28% 0.00 in 842.00 W/m2
13:14 61.5 °F 28.9 °F 29.76 in NW 23.0 mph 29.0 mph 29% 0.00 in 745.00 W/m2
13:19 62.2 °F 28.7 °F 29.76 in NW 23.0 mph 29.0 mph 28% 0.00 in 849.00 W/m2
13:24 62.1 °F 27.7 °F 29.76 in NW 21.0 mph 30.0 mph 27% 0.00 in 814.00 W/m2
13:29 61.2 °F 26.9 °F 29.77 in NNW 10.0 mph 30.0 mph 27% 0.00 in 809.00 W/m2
13:34 61.4 °F 26.2 °F 29.76 in NW 28.0 mph 33.0 mph 26% 0.00 in 759.00 W/m2
13:39 61.8 °F 26.5 °F 29.77 in NW 20.0 mph 34.0 mph 26% 0.00 in 812.00 W/m2
13:44 62.0 °F 26.7 °F 29.77 in NW 22.0 mph 34.0 mph 26% 0.00 in 858.00 W/m2
13:49 62.4 °F 27.9 °F 29.77 in WNW 19.0 mph 34.0 mph 27% 0.00 in 772.00 W/m2
13:54 62.5 °F 28.0 °F 29.77 in West 24.0 mph 32.0 mph 27% 0.00 in 826.00 W/m2
13:59 62.9 °F 28.4 °F 29.77 in NW 12.0 mph 31.0 mph 27% 0.00 in 900.00 W/m2
14:04 62.9 °F 27.5 °F 29.77 in NW 26.0 mph 35.0 mph 26% 0.00 in 768.00 W/m2
14:09 62.0 °F 27.6 °F 29.77 in WNW 27.0 mph 35.0 mph 27% 0.00 in 724.00 W/m2
14:14 61.7 °F 27.3 °F 29.77 in NW 20.0 mph 32.0 mph 27% 0.00 in 872.00 W/m2
14:19 63.2 °F 27.7 °F 29.77 in NW 22.0 mph 32.0 mph 26% 0.00 in 884.00 W/m2
14:24 62.9 °F 27.5 °F 29.77 in NW 18.0 mph 32.0 mph 26% 0.00 in 874.00 W/m2
14:29 63.1 °F 25.7 °F 29.77 in NW 22.0 mph 31.0 mph 24% 0.00 in 856.00 W/m2
14:34 62.8 °F 28.3 °F 29.77 in WNW 22.0 mph 33.0 mph 27% 0.00 in 837.00 W/m2
14:39 62.9 °F 27.5 °F 29.77 in WNW 17.0 mph 34.0 mph 26% 0.00 in 837.00 W/m2
14:44 62.7 °F 25.3 °F 29.77 in NW 21.0 mph 35.0 mph 24% 0.00 in 802.00 W/m2
14:49 62.4 °F 26.1 °F 29.77 in NW 21.0 mph 40.0 mph 25% 0.00 in 849.00 W/m2
14:54 62.6 °F 24.2 °F 29.78 in NW 29.0 mph 42.0 mph 23% 0.00 in 800.00 W/m2
14:59 62.2 °F 22.8 °F 29.78 in NW 30.0 mph 42.0 mph 22% 0.00 in 840.00 W/m2
15:04 62.3 °F 28.7 °F 29.77 in West 21.0 mph 34.0 mph 28% 0.00 in 842.00 W/m2
15:09 62.9 °F 27.5 °F 29.78 in NW 20.0 mph 39.0 mph 26% 0.00 in 814.00 W/m2
15:14 62.5 °F 28.0 °F 29.78 in NNW 17.0 mph 39.0 mph 27% 0.00 in 793.00 W/m2
15:19 62.2 °F 27.8 °F 29.78 in NW 23.0 mph 38.0 mph 27% 0.00 in 737.00 W/m2
15:24 62.7 °F 27.3 °F 29.79 in NW 19.0 mph 38.0 mph 26% 0.00 in 846.00 W/m2
15:29 63.3 °F 29.6 °F 29.79 in NW 23.0 mph 33.0 mph 28% 0.00 in 807.00 W/m2
15:34 62.5 °F 28.0 °F 29.78 in NNW 18.0 mph 29.0 mph 27% 0.00 in 786.00 W/m2
15:39 63.1 °F 28.5 °F 29.78 in NW 26.0 mph 29.0 mph 27% 0.00 in 744.00 W/m2
15:44 62.6 °F 27.2 °F 29.79 in NW 22.0 mph 34.0 mph 26% 0.00 in 751.00 W/m2
15:49 62.1 °F 27.7 °F 29.79 in NW 23.0 mph 34.0 mph 27% 0.00 in 733.00 W/m2
15:54 63.0 °F 27.5 °F 29.79 in NW 21.0 mph 33.0 mph 26% 0.00 in 715.00 W/m2
15:59 62.3 °F 26.9 °F 29.79 in NW 27.0 mph 30.0 mph 26% 0.00 in 728.00 W/m2
16:04 62.7 °F 27.3 °F 29.79 in NW 19.0 mph 30.0 mph 26% 0.00 in 712.00 W/m2
16:09 61.8 °F 24.6 °F 29.80 in NW 21.0 mph 32.0 mph 24% 0.00 in 698.00 W/m2
16:14 62.3 °F 26.0 °F 29.79 in West 30.0 mph 32.0 mph 25% 0.00 in 712.00 W/m2
16:19 62.5 °F 31.4 °F 29.80 in NNW 22.0 mph 31.0 mph 31% 0.00 in 680.00 W/m2
16:24 62.2 °F 30.4 °F 29.80 in NW 21.0 mph 32.0 mph 30% 0.00 in 689.00 W/m2
16:29 62.1 °F 31.1 °F 29.80 in NW 17.0 mph 32.0 mph 31% 0.00 in 700.00 W/m2
16:34 61.5 °F 32.1 °F 29.80 in NW 22.0 mph 29.0 mph 33% 0.00 in 192.00 W/m2
16:39 61.5 °F 30.6 °F 29.80 in NW 16.0 mph 29.0 mph 31% 0.00 in 703.00 W/m2
16:44 61.4 °F 28.0 °F 29.80 in NW 15.0 mph 29.0 mph 28% 0.00 in 659.00 W/m2
16:49 60.5 °F 28.1 °F 29.80 in NW 15.0 mph 29.0 mph 29% 0.00 in 606.00 W/m2
16:54 59.6 °F 28.9 °F 29.80 in WNW 15.0 mph 29.0 mph 31% 0.00 in 148.00 W/m2
16:59 60.8 °F 29.9 °F 29.80 in WNW 18.0 mph 27.0 mph 31% 0.00 in 589.00 W/m2
17:04 61.0 °F 28.5 °F 29.80 in WNW 18.0 mph 30.0 mph 29% 0.00 in 547.00 W/m2
17:09 60.4 °F 31.1 °F 29.80 in NNW 17.0 mph 30.0 mph 33% 0.00 in 603.00 W/m2
17:14 59.5 °F 29.6 °F 29.81 in NNW 13.0 mph 29.0 mph 32% 0.00 in 100.00 W/m2
17:19 59.2 °F 30.1 °F 29.81 in NNW 21.0 mph 22.0 mph 33% 0.00 in 135.00 W/m2
17:24 58.9 °F 29.1 °F 29.81 in NW 10.0 mph 23.0 mph 32% 0.00 in 471.00 W/m2
17:29 59.9 °F 29.9 °F 29.82 in NW 19.0 mph 23.0 mph 32% 0.00 in 497.00 W/m2
17:34 60.6 °F 29.8 °F 29.82 in NW 12.0 mph 23.0 mph 31% 0.00 in 517.00 W/m2
17:39 61.2 °F 30.3 °F 29.82 in NNW 17.0 mph 23.0 mph 31% 0.00 in 457.00 W/m2
17:44 59.1 °F 29.2 °F 29.82 in NW 11.0 mph 23.0 mph 32% 0.00 in 79.00 W/m2
17:49 59.5 °F 31.1 °F 29.82 in NNW 16.0 mph 18.0 mph 34% 0.00 in 452.00 W/m2
17:54 60.1 °F 29.3 °F 29.82 in NW 21.0 mph 25.0 mph 31% 0.00 in 429.00 W/m2
17:59 60.0 °F 29.2 °F 29.82 in NW 15.0 mph 25.0 mph 31% 0.00 in 62.00 W/m2
18:04 59.7 °F 29.8 °F 29.83 in NW 15.0 mph 25.0 mph 32% 0.00 in 413.00 W/m2
18:09 59.6 °F 28.9 °F 29.83 in NW 11.0 mph 24.0 mph 31% 0.00 in 163.00 W/m2
18:14 59.1 °F 29.2 °F 29.83 in NW 16.0 mph 24.0 mph 32% 0.00 in 134.00 W/m2
18:19 59.6 °F 28.9 °F 29.83 in NW 17.0 mph 24.0 mph 31% 0.00 in 97.00 W/m2
18:24 59.4 °F 29.5 °F 29.83 in NNW 16.0 mph 23.0 mph 32% 0.00 in 355.00 W/m2
18:29 59.9 °F 29.2 °F 29.84 in WNW 13.0 mph 23.0 mph 31% 0.00 in 327.00 W/m2
18:34 59.9 °F 29.9 °F 29.84 in NW 12.0 mph 22.0 mph 32% 0.00 in 339.00 W/m2
18:39 60.2 °F 29.4 °F 29.84 in NW 19.0 mph 22.0 mph 31% 0.00 in 329.00 W/m2
18:44 60.3 °F 30.3 °F 29.84 in NNW 17.0 mph 23.0 mph 32% 0.00 in 311.00 W/m2
18:49 60.2 °F 30.2 °F 29.84 in NW 19.0 mph 25.0 mph 32% 0.00 in 274.00 W/m2
18:54 59.3 °F 30.9 °F 29.84 in NW 16.0 mph 25.0 mph 34% 0.00 in 218.00 W/m2
18:59 58.5 °F 30.2 °F 29.84 in NNW 15.0 mph 22.0 mph 34% 0.00 in 197.00 W/m2
19:04 58.4 °F 30.1 °F 29.84 in NW 15.0 mph 21.0 mph 34% 0.00 in 172.00 W/m2
19:09 58.5 °F 30.2 °F 29.84 in NW 12.0 mph 21.0 mph 34% 0.00 in 155.00 W/m2
19:14 58.3 °F 29.3 °F 29.85 in NW 10.0 mph 22.0 mph 33% 0.00 in 51.00 W/m2
19:19 58.2 °F 29.9 °F 29.84 in WNW 8.0 mph 22.0 mph 34% 0.00 in 118.00 W/m2
19:24 58.1 °F 29.8 °F 29.85 in NNW 16.0 mph 17.0 mph 34% 0.00 in 100.00 W/m2
19:29 57.9 °F 29.7 °F 29.85 in NW 9.0 mph 19.0 mph 34% 0.00 in 83.00 W/m2
19:34 57.7 °F 28.8 °F 29.85 in NNW 8.0 mph 19.0 mph 33% 0.00 in 69.00 W/m2
19:39 57.5 °F 28.6 °F 29.85 in NNW 12.0 mph 18.0 mph 33% 0.00 in 54.00 W/m2
19:44 57.1 °F 28.2 °F 29.86 in NW 12.0 mph 20.0 mph 33% 0.00 in 42.00 W/m2
19:49 56.7 °F 28.6 °F 29.86 in NNW 12.0 mph 20.0 mph 34% 0.00 in 32.00 W/m2
19:54 56.2 °F 28.2 °F 29.86 in NW 8.0 mph 16.0 mph 34% 0.00 in 25.00 W/m2
19:59 55.6 °F 28.4 °F 29.86 in NW 7.0 mph 12.0 mph 35% 0.00 in 18.00 W/m2
20:04 54.9 °F 28.4 °F 29.86 in NW 5.0 mph 10.0 mph 36% 0.00 in 16.00 W/m2
20:09 54.4 °F 28.0 °F 29.86 in NW 5.0 mph 9.0 mph 36% 0.00 in 12.00 W/m2
20:14 53.7 °F 28.0 °F 29.86 in NW 6.0 mph 8.0 mph 37% 0.00 in 9.00 W/m2
20:19 53.0 °F 28.0 °F 29.86 in NNW 4.0 mph 7.0 mph 38% 0.00 in 7.00 W/m2
20:24 52.2 °F 28.0 °F 29.86 in NNW 3.0 mph 7.0 mph 39% 0.00 in 5.00 W/m2
20:29 51.5 °F 27.3 °F 29.87 in NNW 3.0 mph 5.0 mph 39% 0.00 in 0.00 W/m2
20:34 51.0 °F 27.5 °F 29.87 in NNW 5.0 mph 6.0 mph 40% 0.00 in 0.00 W/m2
20:39 50.6 °F 27.1 °F 29.87 in NNW 5.0 mph 6.0 mph 40% 0.00 in 0.00 W/m2
20:44 50.3 °F 26.9 °F 29.87 in NNW 5.0 mph 6.0 mph 40% 0.00 in 0.00 W/m2
20:49 50.1 °F 26.7 °F 29.87 in NNW 4.0 mph 6.0 mph 40% 0.00 in 0.00 W/m2
20:54 49.8 °F 26.4 °F 29.87 in NNW 3.0 mph 6.0 mph 40% 0.00 in 0.00 W/m2
20:59 49.5 °F 26.7 °F 29.87 in NNW 4.0 mph 5.0 mph 41% 0.00 in 0.00 W/m2
21:04 49.3 °F 26.6 °F 29.87 in NNW 4.0 mph 5.0 mph 41% 0.00 in 0.00 W/m2
21:09 49.1 °F 27.0 °F 29.88 in NNW 4.0 mph 5.0 mph 42% 0.00 in 0.00 W/m2
21:14 49.0 °F 26.9 °F 29.88 in North 3.0 mph 6.0 mph 42% 0.00 in 0.00 W/m2
21:19 48.9 °F 26.8 °F 29.88 in North 4.0 mph 6.0 mph 42% 0.00 in 0.00 W/m2
21:24 48.8 °F 26.7 °F 29.88 in North 4.0 mph 6.0 mph 42% 0.00 in 0.00 W/m2
21:29 48.8 °F 26.7 °F 29.88 in North 2.0 mph 5.0 mph 42% 0.00 in 0.00 W/m2
21:34 48.9 °F 26.8 °F 29.88 in North 1.0 mph 4.0 mph 42% 0.00 in 0.00 W/m2
21:39 48.7 °F 26.6 °F 29.88 in North 1.0 mph 3.0 mph 42% 0.00 in 0.00 W/m2
21:44 48.5 °F 26.4 °F 29.88 in North 1.0 mph 3.0 mph 42% 0.00 in 0.00 W/m2
21:49 48.2 °F 26.2 °F 29.88 in Calm   3.0 mph 42% 0.00 in 0.00 W/m2
21:54 47.9 °F 26.5 °F 29.88 in North 1.0 mph 2.0 mph 43% 0.00 in 0.00 W/m2
21:59 47.6 °F 26.2 °F 29.88 in North 1.0 mph 2.0 mph 43% 0.00 in 0.00 W/m2
22:04 47.3 °F 25.9 °F 29.88 in Calm   2.0 mph 43% 0.00 in 0.00 W/m2
22:09 47.0 °F 26.2 °F 29.89 in North 1.0 mph 1.0 mph 44% 0.00 in 0.00 W/m2
22:14 47.1 °F 26.3 °F 29.89 in North 1.0 mph 1.0 mph 44% 0.00 in 0.00 W/m2
22:19 47.1 °F 26.3 °F 29.89 in North 1.0 mph 2.0 mph 44% 0.00 in 0.00 W/m2
22:24 47.1 °F 26.3 °F 29.89 in North 1.0 mph 2.0 mph 44% 0.00 in 0.00 W/m2
22:29 47.1 °F 26.3 °F 29.89 in North 1.0 mph 2.0 mph 44% 0.00 in 0.00 W/m2
22:34 47.0 °F 26.2 °F 29.89 in North 2.0 mph 2.0 mph 44% 0.00 in 0.00 W/m2
22:39 46.9 °F 26.1 °F 29.89 in North 2.0 mph 2.0 mph 44% 0.00 in 0.00 W/m2
22:44 47.0 °F 26.2 °F 29.89 in NW 2.0 mph 3.0 mph 44% 0.00 in 0.00 W/m2
22:49 46.8 °F 26.0 °F 29.89 in West 2.0 mph 3.0 mph 44% 0.00 in 0.00 W/m2
22:54 46.6 °F 25.8 °F 29.89 in West 3.0 mph 3.0 mph 44% 0.00 in 0.00 W/m2
22:59 46.4 °F 25.6 °F 29.89 in WSW 2.0 mph 3.0 mph 44% 0.00 in 0.00 W/m2
23:04 46.3 °F 26.1 °F 29.89 in WSW 2.0 mph 3.0 mph 45% 0.00 in 0.00 W/m2
23:09 46.1 °F 25.9 °F 29.89 in WSW 2.0 mph 3.0 mph 45% 0.00 in 0.00 W/m2
23:14 45.9 °F 26.3 °F 29.88 in WSW 2.0 mph 3.0 mph 46% 0.00 in 0.00 W/m2
23:19 45.5 °F 25.9 °F 29.88 in WSW 2.0 mph 3.0 mph 46% 0.00 in 0.00 W/m2
23:24 45.3 °F 26.2 °F 29.88 in WSW 2.0 mph 3.0 mph 47% 0.00 in 0.00 W/m2
23:29 45.0 °F 26.5 °F 29.88 in NW 2.0 mph 4.0 mph 48% 0.00 in 0.00 W/m2
23:34 44.6 °F 26.1 °F 29.88 in NW 2.0 mph 4.0 mph 48% 0.00 in 0.00 W/m2
23:39 44.7 °F 26.2 °F 29.88 in NW 2.0 mph 3.0 mph 48% 0.00 in 0.00 W/m2
23:44 44.9 °F 26.4 °F 29.88 in NW 2.0 mph 3.0 mph 48% 0.00 in 0.00 W/m2
23:49 44.9 °F 26.4 °F 29.88 in NW 3.0 mph 3.0 mph 48% 0.00 in 0.00 W/m2
23:54 44.7 °F 26.2 °F 29.88 in NW 3.0 mph 4.0 mph 48% 0.00 in 0.00 W/m2
23:59 44.6 °F 26.1 °F 29.88 in NW 3.0 mph 4.0 mph 48% 0.00 in 0.00 W/m2
Bismarck, North Dakota, USA
Compliments of Weather Underground - 4 mb